CZ-3B DEB, 40845

Orbit data source: Space-Track

CZ-3B DEB, 40845 is space debris in HEO originally from a launch on Mon, 19 Dec 2011 UTC launched from the Xichang Space Center, China (XSC). Debris objects in space refer to the collection of defunct objects orbiting the Earth. Examples of debris include non-operational satellites, rocket bodies, and fragments generated from explosions, collisions, or faulty payload assembly.

Loading next visibility...
Identifier
40845, 2011-077AA
Orbit
HEO
Country
Flag of CNCN / PRC
Related business
Manufacturer
CALT
Mission
Spacecraft
Bus & Motor
Unknown
Mass
Unknown
Launch date (UTC)
2011-12-19 (15 years ago)
Launch vehicle
Unknown
Launch site
Xichang Space Center, China (XSC)
Object type
Payload
Rocket body
Debris
Shape & HBR
Unknown shape, 0.2 m
Radar Cross Section
Medium (>0.1 m² and <1 m²)

Expand to show TLE details & history
Last TLE update: 3 weeks ago

TLE from 3 weeks ago
0 CZ-3B DEB
1 40845U 11077AA  26235.68343645 -.00000208  00000-0  17056-2 0  9996
2 40845  21.8289 114.1668 7376069 231.1078  36.8564  2.07716817 93722
Epoch: 2026-08-23T16:24Z
TLE epoch observation values (Epoch: 2026-08-23T16:24:08.909Z)
Latitude
0.00019°
Longitude
-103.6938°
Altitude
15,706.539 km
Speed
4.553 km/s
True Right ascension
07h 37m 16s
True Declination
0° 00' 01"
Sunlit
Object was in daylight at epoch
Visualization orbit readout
Latitude
Unknown
Longitude
Unknown
Altitude
Unknown
Speed
Unknown
Apparent Right ascension
Unknown
Apparent Declination
Unknown
Sunlit
N/A
Visualization observer readout
Local Sidereal Time
17:28:23
Azimuth
Unknown
Elevation
Unknown
Doppler factor
Unknown
Orbital elements
Apogee altitude
38,715.197 km
Perigee altitude
431.332 km
Semi-major axis
25,951.401 km
Eccentricity
0.73761
Inclination
21.8289°
RAAN
114.1668°
Arg. of periapsis
231.1078°
True anomaly
128.91204°
Mean anomaly
36.8564°
Eccentric anomaly
78.22951°
Mean motion
0.51916 °/min
Orbital period
693.43 mins
BSTAR
0.0017056
Loading maneuver chart data...
Computing Atmospheric mass density...
Loading historical data...
Loading historical data...
Loading historical data...
Loading historical data...
Loading historical data...
Loading historical data...
Loading historical data...

Documentation

Showing up to 5 results
|